[[{"header":{"parameterUnit":"m.s-1","parameterCategory":1,"la1":30.2992,"la2":30.254,"lo1":-89.0895,"lo2":-89.0443,"dy":0.0025,"dx":0.0025,"nx":19,"ny":19,"refTime":"2026-04-03T03:00:00:Z","depth":0,"parameterNumber":2,"parameterNumberName":"U-component_of_WINDS"},"data":[0,0,0,-4.3091,-4.3095,-4.3274,-4.3275,-4.3508,-4.351,0,0,0,0,0,0,0,0,0,0,0,-4.3039,-4.3041,-4.3091,-4.3095,-4.3274,-4.3275,-4.3508,-4.351,0,0,0,0,0,0,0,0,0,0,0,-4.3038,-4.304,-4.3042,-4.3096,-4.3274,-4.3275,-4.3507,-4.3371,0,0,0,0,0,0,0,0,0,0,-4.3196,-4.3149,-4.304,-4.3042,-4.3097,-4.3274,-4.3275,-4.3364,-4.3379,-4.3428,0,-4.3471,0,-4.3495,-4.3526,-4.3527,0,0,0,-4.3094,-4.3137,-4.3184,-4.3043,-4.3099,-4.3274,-4.3193,-4.3373,-4.339,-4.3448,-4.3475,-4.3483,-4.3499,-4.3528,-4.3529,-4.3813,-4.3814,0,0,-4.3084,-4.3072,-4.3172,-4.3195,-4.3167,-4.3187,-4.3199,-4.3383,-4.3411,-4.3476,-4.3489,-4.3502,-4.3529,-4.3531,-4.3811,-4.3813,0,0,0,-4.3056,-4.3065,-4.3108,-4.3186,-4.3217,-4.3193,-4.3206,-4.3403,-4.3418,-4.3491,-4.3505,-4.3531,-4.3533,-4.381,-4.3812,-4.3866,0,0,0,-4.305,-4.3049,-4.3104,-4.3098,-4.3214,-4.3312,-4.3221,-4.3405,-4.3426,-4.3504,-4.3531,-4.3536,-4.3808,-4.3811,-4.3861,-4.3893,0,0,0,-4.3027,-4.3046,-4.3073,-4.3097,-4.3174,-4.331,-4.3335,-4.341,-4.3435,-4.3527,-4.3536,-4.3807,-4.381,-4.3857,-4.3886,-4.3963,0,0,0,-4.2998,-4.3119,-4.3073,-4.3214,-4.3172,-4.3342,-4.3334,-4.3462,-4.3547,-4.3532,-4.3809,-4.3812,-4.3856,-4.3882,-4.3958,-4.4024,-4.405,0,0,-4.3143,-4.3136,-4.3219,-4.3184,-4.3359,-4.3316,-4.35,-4.359,-4.3611,-4.3744,-4.3751,-4.3863,-4.3886,-4.3962,-4.4208,-4.4229,0,0,0,-4.3261,-4.3321,-4.337,-4.3451,-4.3523,-4.3587,-4.3651,-4.3685,-4.3799,-4.3676,-4.3913,-4.3927,-4.3972,-4.4004,-4.4022,-4.4061,-4.3826,-4.3826,-4.3826,-4.3447,-4.3467,-4.3607,-4.3648,-4.3728,-4.3793,-4.3859,-4.3916,-4.3913,-4.3969,-4.4008,-4.4154,-4.4191,-4.4205,-4.4245,-4.4046,-4.4046,-4.4046,-4.4047,-4.366,-4.3746,-4.3741,-4.3874,-4.3895,-4.4008,-4.4077,-4.4071,-4.4179,-4.4126,-4.4167,-4.4106,-4.4227,-4.4263,-4.4051,-4.405,-4.405,-4.4049,-4.4049,-4.3781,-4.3826,-4.3866,-4.3986,-4.4076,-4.4116,-4.422,-4.4236,-4.4252,-4.4293,-4.4335,-4.4335,-4.4334,-4.4313,-4.4313,-4.4314,-4.4314,-4.4315,-4.4315,-4.3891,-4.3934,-4.4019,-4.4107,-4.4162,-4.4236,-4.4305,-4.4359,-4.4424,-4.4427,-4.4428,-4.4419,-4.4236,-4.4188,-4.4323,-4.4321,-4.432,-4.432,-4.4319,-4.4094,-4.4051,-4.4182,-4.4237,-4.4343,-4.4431,-4.4452,-4.4562,-4.461,-4.4661,-4.4645,-4.4508,-4.4501,-4.4487,-4.4447,-4.4641,-4.4641,-4.4641,-4.4641,-4.4195,-4.4194,-4.4332,-4.4419,-4.4506,-4.4538,-4.4687,-4.4743,-4.4794,-4.4825,-4.48,-4.475,-4.4735,-4.4737,-4.4718,-4.4681,-4.493,-4.493,-4.493,-4.4321,-4.4329,-4.4451,-4.45,-4.4584,-4.4657,-4.4797,-4.4897,-4.4947,-4.4942,-4.4849,-4.4837,-4.4757,-4.473,-4.4719,-4.4688,-4.4621,0,0]},{"header":{"parameterUnit":"m.s-1","parameterCategory":1,"la1":30.2992,"la2":30.254,"lo1":-89.0895,"lo2":-89.0443,"dy":0.0025,"dx":0.0025,"nx":19,"ny":19,"refTime":"2026-04-03T03:00:00:Z","depth":0,"parameterNumber":3,"parameterNumberName":"V-component_of_WINDS"},"data":[0,0,0,2.974,2.9745,2.9993,2.9994,3.0298,3.03,0,0,0,0,0,0,0,0,0,0,0,2.9657,2.9658,2.9739,2.9745,2.9993,2.9994,3.0297,3.03,0,0,0,0,0,0,0,0,0,0,0,2.9656,2.9658,2.966,2.9746,2.9992,2.9994,3.0297,3.0115,0,0,0,0,0,0,0,0,0,0,2.9877,2.979,2.9657,2.966,2.9748,2.9992,2.9994,3.0106,3.0126,3.018,0,3.0223,0,3.0266,3.032,3.0321,0,0,0,2.9753,2.9773,2.9849,2.966,2.975,2.9992,2.9883,3.0118,3.014,3.0206,3.0227,3.0239,3.0271,3.0322,3.0323,3.0604,3.0604,0,0,2.9739,2.9696,2.9833,2.9863,2.9821,2.9875,2.9891,3.0131,3.0152,3.0228,3.0246,3.0276,3.0324,3.0326,3.0603,3.0604,0,0,0,2.9695,2.9686,2.9756,2.985,2.9895,2.9882,2.99,3.0142,3.0168,3.025,3.028,3.0325,3.0329,3.0602,3.0603,3.0609,0,0,0,2.9687,2.966,2.975,2.9726,2.989,3.0021,2.9904,3.0151,3.018,3.0278,3.0325,3.0332,3.0601,3.0603,3.0607,3.0619,0,0,0,2.9644,2.9655,2.9688,2.9723,2.9828,3.0018,3.0059,3.0159,3.0198,3.0321,3.0332,3.06,3.0602,3.0604,3.0616,3.0682,0,0,0,2.9585,2.9687,2.9687,2.9813,2.9825,3.0019,3.0058,3.0204,3.031,3.0327,3.0601,3.0603,3.0604,3.0614,3.0679,3.0731,3.0747,0,0,2.969,2.9699,2.9777,2.9784,2.9966,2.9985,3.017,3.0308,3.0359,3.052,3.0527,3.0607,3.0615,3.0681,3.0855,3.0868,0,0,0,2.9796,2.9851,2.9909,3.0008,3.0116,3.0211,3.0326,3.0378,3.0517,3.0432,3.065,3.0656,3.0697,3.0723,3.0734,3.0773,3.0613,3.0613,3.0613,2.9881,2.9943,3.0078,3.017,3.0266,3.0384,3.0469,3.056,3.0592,3.0643,3.0691,3.0789,3.0818,3.0827,3.0867,3.0722,3.0722,3.0722,3.0722,3.0043,3.0132,3.0176,3.0322,3.0388,3.0512,3.0632,3.0652,3.0779,3.0756,3.0795,3.0766,3.0839,3.0877,3.0723,3.0723,3.0723,3.0723,3.0723,3.0107,3.0161,3.0222,3.0375,3.0486,3.0576,3.0697,3.0752,3.0805,3.0843,3.0902,3.0902,3.0911,3.0867,3.0868,3.0868,3.0868,3.0869,3.0869,3.0149,3.0219,3.0313,3.0439,3.0512,3.0615,3.0739,3.0813,3.0909,3.094,3.0941,3.0971,3.0834,3.0799,3.0874,3.0873,3.0873,3.0872,3.0872,3.0291,3.0269,3.0414,3.0487,3.0643,3.0751,3.0821,3.0968,3.1037,3.1096,3.1119,3.1008,3.102,3.1012,3.0984,3.1103,3.1103,3.1103,3.1103,3.0346,3.0358,3.0522,3.0636,3.0754,3.0833,3.1,3.1098,3.1196,3.1244,3.1235,3.1202,3.1191,3.1211,3.1198,3.1173,3.1337,3.1337,3.1338,3.0439,3.0465,3.0595,3.069,3.0817,3.0925,3.1085,3.1216,3.1323,3.1348,3.1284,3.1274,3.1221,3.1201,3.1223,3.1202,3.1157,0,0]}]]